This is the latest recevied weather packets stored in our database for station/object KY4OP-13. If no packets are shown the sender has not sent any weather packets the latest 10 day(s).
| Time | Temp. | Humidity | Pressure | Rain* | Wind** | Luminosity | Snow |
|---|---|---|---|---|---|---|---|
| 1778074358 | 15.56° C | 94% | 1012.4 hPa | 1.78 mm | - | - | - |
| 1778074055 | 15.56° C | 94% | 1012.4 hPa | 1.78 mm | - | - | - |
| 1778073752 | 15.56° C | 95% | 1012.3 hPa | 0 mm | - | - | - |
| 1778073450 | 15° C | 95% | 1012.4 hPa | 0 mm | - | - | - |
| 1778073146 | 15° C | 95% | 1012.3 hPa | 0 mm | - | - | - |
| 1778072843 | 15° C | 95% | 1012.4 hPa | 0 mm | - | - | - |
| 1778072540 | 15° C | 95% | 1012 hPa | 0 mm | - | - | - |
| 1778072238 | 15° C | 95% | 1012.3 hPa | 0 mm | - | - | - |
| 1778071935 | 15° C | 95% | 1012.3 hPa | 0 mm | - | - | - |
| 1778071633 | 15° C | 95% | 1012.3 hPa | 0 mm | - | - | - |
| 1778071331 | 15° C | 94% | 1012.5 hPa | 0 mm | - | - | - |
| 1778071028 | 15° C | 94% | 1012.7 hPa | 1.27 mm | - | - | - |
| 1778070727 | 15° C | 94% | 1012.5 hPa | 3.05 mm | - | - | - |
| 1778070423 | 15° C | 94% | 1012.5 hPa | 1.78 mm | - | - | - |
| 1778070121 | 15° C | 93% | 1012.5 hPa | 1.27 mm | - | - | - |
| 1778069819 | 15.56° C | 92% | 1012.4 hPa | 3.05 mm | - | - | - |
| 1778069514 | 15.56° C | 91% | 1012.2 hPa | 3.56 mm | - | - | - |
| 1778069213 | 15.56° C | 90% | 1012.5 hPa | 1.78 mm | - | - | - |
| 1778068910 | 15.56° C | 90% | 1012.5 hPa | 0 mm | - | - | - |
| 1778068608 | 15.56° C | 90% | 1012.4 hPa | 0 mm | - | - | - |
| 1778068306 | 15.56° C | 90% | 1012.1 hPa | 0 mm | - | - | - |
| 1778068003 | 15.56° C | 90% | 1012.2 hPa | 0 mm | - | - | - |
| 1778067701 | 15.56° C | 90% | 1012.1 hPa | 0 mm | - | - | - |
| 1778067399 | 15.56° C | 89% | 1012.1 hPa | 0 mm | - | - | - |
| 1778067096 | 15.56° C | 89% | 1012.4 hPa | 0 mm | - | - | - |
* Rain latest hour (hover to see other rain measurements)
** Current wind speed in m/s (hover to see current wind gust speed)